Powrót do katalogu

SL-8 R/B

AktywnyPO
NORAD 22308·ROCKET BODY·🇷🇺 Russia

Wystrzelony Jan 12, 1993 z Plesetsk Cosmodrome

Loading…

Następne Przeloty (najbliższe 24 godziny)

TLE

ŚwieżeSource: Space-Track

Epoka: Sep 14, 2026, 05:56 UTC

1 22308U 93001B   26257.24769660  .00000087  00000-0  73791-4 0  9996
2 22308  82.9391 181.3562 0024338 131.3035  31.3060 13.75987133690242

Śledź SL-8 R/B w czasie rzeczywistym z AllMySat

Download on the App Store